owner,sensor,date,latitude,longitude,vertical_datum,direction_of_sea_water_velocity,sea_water_speed,upward_sea_water_velocity,qcFlag 
TABS,ioos:station:wmo:42044:1,2012-10-01T00:00:00Z,26.1914,-97.0507,2.0,181.1275109,7.621476235,-99999.0,'11133222,11111222,99999999' 
TABS,ioos:station:wmo:42044:1,2012-10-01T00:30:00Z,26.1914,-97.0507,2.0,219.059661,4.919593479,-99999.0,'11133222,11111222,99999999' 
TABS,ioos:station:wmo:42044:1,2012-10-01T01:00:00Z,26.1914,-97.0507,2.0,173.0357589,7.50537141,-99999.0,'11133222,11111222,99999999' 
TABS,ioos:station:wmo:42044:1,2012-10-01T01:30:00Z,26.1914,-97.0507,2.0,176.2992551,8.056798372,-99999.0,'11133222,11111222,99999999' 
TABS,ioos:station:wmo:42044:1,2012-10-01T02:00:00Z,26.1914,-97.0507,2.0,201.1609999,7.645554264,-99999.0,'11133222,11111222,99999999' 
TABS,ioos:station:wmo:42044:1,2012-10-01T02:30:00Z,26.1914,-97.0507,2.0,170.7766559,6.301468083,-99999.0,'11133222,11111222,99999999' 
TABS,ioos:station:wmo:42044:1,2012-10-01T03:00:00Z,26.1914,-97.0507,2.0,181.2871155,4.451123454,-99999.0,'11133222,11111222,99999999' 
TABS,ioos:station:wmo:42044:1,2012-10-01T03:30:00Z,26.1914,-97.0507,2.0,215.7394844,5.273025697,-99999.0,'11133222,11111222,99999999' 
TABS,ioos:station:wmo:42044:1,2012-10-01T04:00:00Z,26.1914,-97.0507,2.0,187.2955293,5.827177705,-99999.0,'11133222,11111222,99999999' 
TABS,ioos:station:wmo:42044:1,2012-10-01T04:30:00Z,26.1914,-97.0507,2.0,237.0526321,4.063520641,-99999.0,'11133222,11111222,99999999' 
TABS,ioos:station:wmo:42044:1,2012-10-01T05:00:00Z,26.1914,-97.0507,2.0,244.4396737,5.353970489,-99999.0,'11133222,11111222,99999999' 
TABS,ioos:station:wmo:42044:1,2012-10-01T05:30:00Z,26.1914,-97.0507,2.0,223.1639139,2.20730605,-99999.0,'11133222,11111222,99999999' 
TABS,ioos:station:wmo:42044:1,2012-10-01T06:00:00Z,26.1914,-97.0507,2.0,261.6893213,0.899444273,-99999.0,'11133222,11111222,99999999' 
TABS,ioos:station:wmo:42044:1,2012-10-01T06:30:00Z,26.1914,-97.0507,2.0,206.8795867,4.069705149,-99999.0,'11133222,11111222,99999999' 
TABS,ioos:station:wmo:42044:1,2012-10-01T07:00:00Z,26.1914,-97.0507,2.0,285.1483092,3.750306654,-99999.0,'11133222,11111222,99999999' 
TABS,ioos:station:wmo:42044:1,2012-10-01T07:30:00Z,26.1914,-97.0507,2.0,206.5647786,1.498165545,-99999.0,'11133222,11111222,99999999' 
TABS,ioos:station:wmo:42044:1,2012-10-01T08:00:00Z,26.1914,-97.0507,2.0,241.3661204,3.964895963,-99999.0,'11133222,11111222,99999999' 
TABS,ioos:station:wmo:42044:1,2012-10-01T08:30:00Z,26.1914,-97.0507,2.0,203.9323499,1.947434209,-99999.0,'11133222,11111222,99999999' 
TABS,ioos:station:wmo:42044:1,2012-10-01T09:00:00Z,26.1914,-97.0507,2.0,207.8969953,2.308246087,-99999.0,'11133222,11111222,99999999' 
TABS,ioos:station:wmo:42044:1,2012-10-01T09:30:00Z,26.1914,-97.0507,2.0,222.3054063,1.203411816,-99999.0,'11133222,11111222,99999999' 
TABS,ioos:station:wmo:42044:1,2012-10-01T10:00:00Z,26.1914,-97.0507,2.0,256.8655875,2.156409052,-99999.0,'11133222,11111222,99999999' 
TABS,ioos:station:wmo:42044:1,2012-10-01T10:30:00Z,26.1914,-97.0507,2.0,242.570902,3.560224712,-99999.0,'11133222,11111222,99999999' 
TABS,ioos:station:wmo:42044:1,2012-10-01T11:00:00Z,26.1914,-97.0507,2.0,281.8000214,2.983035367,-99999.0,'11133222,11111222,99999999' 
TABS,ioos:station:wmo:42044:1,2012-10-01T11:30:00Z,26.1914,-97.0507,2.0,186.8634654,2.175591873,-99999.0,'11133222,11111222,99999999' 
TABS,ioos:station:wmo:42044:1,2012-10-01T12:00:00Z,26.1914,-97.0507,2.0,163.1011804,0.825651258,-99999.0,'11133222,11111222,99999999' 
TABS,ioos:station:wmo:42044:1,2012-10-01T12:30:00Z,26.1914,-97.0507,2.0,173.7384779,3.209143188,-99999.0,'11133222,11111222,99999999' 
TABS,ioos:station:wmo:42044:1,2012-10-01T13:00:00Z,26.1914,-97.0507,2.0,270.4887243,3.520127839,-99999.0,'11133222,11111222,99999999' 
TABS,ioos:station:wmo:42044:1,2012-10-01T13:30:00Z,26.1914,-97.0507,2.0,295.4483662,1.60580198,-99999.0,'11133222,11111222,99999999' 
TABS,ioos:station:wmo:42044:1,2012-10-01T14:00:00Z,26.1914,-97.0507,2.0,303.4329029,2.468440803,-99999.0,'11133222,11111222,99999999' 
TABS,ioos:station:wmo:42044:1,2012-10-01T14:30:00Z,26.1914,-97.0507,2.0,208.8863038,3.643308936,-99999.0,'11133222,11111222,99999999' 
TABS,ioos:station:wmo:42044:1,2012-10-01T15:00:00Z,26.1914,-97.0507,2.0,234.5362978,1.792540097,-99999.0,'11133222,11111222,99999999' 
TABS,ioos:station:wmo:42044:1,2012-10-01T15:30:00Z,26.1914,-97.0507,2.0,231.9380539,2.692582404,-99999.0,'11133222,11111222,99999999' 
TABS,ioos:station:wmo:42044:1,2012-10-01T16:00:00Z,26.1914,-97.0507,2.0,221.8980275,1.437532608,-99999.0,'11133222,11111222,99999999' 
TABS,ioos:station:wmo:42044:1,2012-10-01T16:30:00Z,26.1914,-97.0507,2.0,273.2559313,5.458809394,-99999.0,'11133222,11111222,99999999' 
TABS,ioos:station:wmo:42044:1,2012-10-01T17:00:00Z,26.1914,-97.0507,2.0,274.7228168,2.307834483,-99999.0,'11133222,11111222,99999999' 
TABS,ioos:station:wmo:42044:1,2012-10-01T17:30:00Z,26.1914,-97.0507,2.0,269.8082755,5.990033389,-99999.0,'11133222,11111222,99999999' 
TABS,ioos:station:wmo:42044:1,2012-10-01T18:00:00Z,26.1914,-97.0507,2.0,274.2408181,5.274438359,-99999.0,'11133222,11111222,99999999' 
TABS,ioos:station:wmo:42044:1,2012-10-01T18:30:00Z,26.1914,-97.0507,2.0,269.3359526,7.770521218,-99999.0,'11133222,11111222,99999999' 
TABS,ioos:station:wmo:42044:1,2012-10-01T19:00:00Z,26.1914,-97.0507,2.0,294.1966169,4.977268327,-99999.0,'11133222,11111222,99999999' 
TABS,ioos:station:wmo:42044:1,2012-10-01T19:30:00Z,26.1914,-97.0507,2.0,275.5816237,6.169246307,-99999.0,'11133222,11111222,99999999' 
TABS,ioos:station:wmo:42044:1,2012-10-01T20:00:00Z,26.1914,-97.0507,2.0,276.9141934,6.728930078,-99999.0,'11133222,11111222,99999999' 
TABS,ioos:station:wmo:42044:1,2012-10-01T20:30:00Z,26.1914,-97.0507,2.0,276.8360511,6.385389573,-99999.0,'11133222,11111222,99999999' 
TABS,ioos:station:wmo:42044:1,2012-10-01T21:00:00Z,26.1914,-97.0507,2.0,280.5758076,7.955124135,-99999.0,'11133222,11111222,99999999' 
TABS,ioos:station:wmo:42044:1,2012-10-01T21:30:00Z,26.1914,-97.0507,2.0,289.4613364,7.593846193,-99999.0,'11133222,11111222,99999999' 
TABS,ioos:station:wmo:42044:1,2012-10-01T22:00:00Z,26.1914,-97.0507,2.0,303.963244,7.571743524,-99999.0,'11133222,11111222,99999999' 
TABS,ioos:station:wmo:42044:1,2012-10-01T22:30:00Z,26.1914,-97.0507,2.0,299.2515333,8.492973566,-99999.0,'11133222,11111222,99999999' 
TABS,ioos:station:wmo:42044:1,2012-10-01T23:00:00Z,26.1914,-97.0507,2.0,297.7649903,8.758361719,-99999.0,'11133222,11111222,99999999' 
TABS,ioos:station:wmo:42044:1,2012-10-01T23:30:00Z,26.1914,-97.0507,2.0,315.0003157,7.580184694,-99999.0,'11133222,11111222,99999999' 
TABS,ioos:station:wmo:42044:1,2012-10-02T00:00:00Z,26.1914,-97.0507,2.0,314.5003664,8.103752217,-99999.0,'11133222,11111222,99999999' 
TABS,ioos:station:wmo:42044:1,2012-10-02T00:30:00Z,26.1914,-97.0507,2.0,325.284806,7.129039206,-99999.0,'11133222,11111222,99999999' 
TABS,ioos:station:wmo:42044:1,2012-10-02T01:00:00Z,26.1914,-97.0507,2.0,345.6348177,8.020785498,-99999.0,'11133222,11111222,99999999' 
TABS,ioos:station:wmo:42044:1,2012-10-02T01:30:00Z,26.1914,-97.0507,2.0,349.6553772,7.684920299,-99999.0,'11133222,11111222,99999999' 
TABS,ioos:station:wmo:42044:1,2012-10-02T02:00:00Z,26.1914,-97.0507,2.0,321.1934733,4.26043425,-99999.0,'11133222,11111222,99999999' 
TABS,ioos:station:wmo:42044:1,2012-10-02T02:30:00Z,26.1914,-97.0507,2.0,0.000210459,5.36,-99999.0,'11133222,11111222,99999999' 
TABS,ioos:station:wmo:42044:1,2012-10-02T03:00:00Z,26.1914,-97.0507,2.0,345.4097313,4.763622571,-99999.0,'11133222,11111222,99999999' 
TABS,ioos:station:wmo:42044:1,2012-10-02T03:30:00Z,26.1914,-97.0507,2.0,341.7654051,5.432826152,-99999.0,'11133222,11111222,99999999' 
TABS,ioos:station:wmo:42044:1,2012-10-02T04:00:00Z,26.1914,-97.0507,2.0,332.6984533,7.303601851,-99999.0,'11133222,11111222,99999999' 
TABS,ioos:station:wmo:42044:1,2012-10-02T04:30:00Z,26.1914,-97.0507,2.0,345.6537936,8.959397301,-99999.0,'11133222,11111222,99999999' 
TABS,ioos:station:wmo:42044:1,2012-10-02T05:00:00Z,26.1914,-97.0507,2.0,348.3455003,7.821253097,-99999.0,'11133222,11111222,99999999' 
TABS,ioos:station:wmo:42044:1,2012-10-02T05:30:00Z,26.1914,-97.0507,2.0,333.283646,10.14283984,-99999.0,'11111222,11111222,99999999' 
TABS,ioos:station:wmo:42044:1,2012-10-02T06:00:00Z,26.1914,-97.0507,2.0,349.5469339,6.558856608,-99999.0,'11133222,11111222,99999999' 
TABS,ioos:station:wmo:42044:1,2012-10-02T06:30:00Z,26.1914,-97.0507,2.0,332.9308191,8.63602918,-99999.0,'11133222,11111222,99999999' 
TABS,ioos:station:wmo:42044:1,2012-10-02T07:00:00Z,26.1914,-97.0507,2.0,319.4540498,5.64561777,-99999.0,'11133222,11111222,99999999' 
TABS,ioos:station:wmo:42044:1,2012-10-02T07:30:00Z,26.1914,-97.0507,2.0,346.4919652,7.106595528,-99999.0,'11133222,11111222,99999999' 
TABS,ioos:station:wmo:42044:1,2012-10-02T08:00:00Z,26.1914,-97.0507,2.0,350.0960504,7.674372939,-99999.0,'11133222,11111222,99999999' 
TABS,ioos:station:wmo:42044:1,2012-10-02T08:30:00Z,26.1914,-97.0507,2.0,352.9304532,7.718685121,-99999.0,'11133222,11111222,99999999' 
TABS,ioos:station:wmo:42044:1,2012-10-02T09:00:00Z,26.1914,-97.0507,2.0,352.0669571,9.056677095,-99999.0,'11133222,11111222,99999999' 
TABS,ioos:station:wmo:42044:1,2012-10-02T09:30:00Z,26.1914,-97.0507,2.0,358.0195942,6.944148616,-99999.0,'11133222,11111222,99999999' 
TABS,ioos:station:wmo:42044:1,2012-10-02T10:00:00Z,26.1914,-97.0507,2.0,1.255623429,8.672081642,-99999.0,'11133222,11111222,99999999' 
TABS,ioos:station:wmo:42044:1,2012-10-02T10:30:00Z,26.1914,-97.0507,2.0,347.5728891,6.737870584,-99999.0,'11133222,11111222,99999999' 
TABS,ioos:station:wmo:42044:1,2012-10-02T11:00:00Z,26.1914,-97.0507,2.0,346.0719011,7.727198716,-99999.0,'11133222,11111222,99999999' 
TABS,ioos:station:wmo:42044:1,2012-10-02T11:30:00Z,26.1914,-97.0507,2.0,358.782633,9.412125159,-99999.0,'11133222,11111222,99999999' 
TABS,ioos:station:wmo:42044:1,2012-10-02T12:00:00Z,26.1914,-97.0507,2.0,6.153300221,5.411173625,-99999.0,'11133222,11111222,99999999' 
TABS,ioos:station:wmo:42044:1,2012-10-02T12:30:00Z,26.1914,-97.0507,2.0,3.725290029,9.850812149,-99999.0,'11133222,11111222,99999999' 
TABS,ioos:station:wmo:42044:1,2012-10-02T13:00:00Z,26.1914,-97.0507,2.0,350.1076165,10.06972194,-99999.0,'11111222,11111222,99999999' 
TABS,ioos:station:wmo:42044:1,2012-10-02T13:30:00Z,26.1914,-97.0507,2.0,342.9710507,10.31212878,-99999.0,'11111222,11111222,99999999' 
TABS,ioos:station:wmo:42044:1,2012-10-02T14:00:00Z,26.1914,-97.0507,2.0,342.5070662,11.54387283,-99999.0,'11111222,11111222,99999999' 
TABS,ioos:station:wmo:42044:1,2012-10-02T14:30:00Z,26.1914,-97.0507,2.0,355.3216434,8.949821227,-99999.0,'11133222,11111222,99999999' 
TABS,ioos:station:wmo:42044:1,2012-10-02T15:00:00Z,26.1914,-97.0507,2.0,350.2645823,9.993928157,-99999.0,'11133222,11111222,99999999' 
TABS,ioos:station:wmo:42044:1,2012-10-02T15:30:00Z,26.1914,-97.0507,2.0,344.1532838,9.594649551,-99999.0,'11133222,11111222,99999999' 
TABS,ioos:station:wmo:42044:1,2012-10-02T16:00:00Z,26.1914,-97.0507,2.0,349.5235954,9.844109914,-99999.0,'11133222,11111222,99999999' 
TABS,ioos:station:wmo:42044:1,2012-10-02T16:30:00Z,26.1914,-97.0507,2.0,4.615790576,9.320225319,-99999.0,'11133222,11111222,99999999' 
TABS,ioos:station:wmo:42044:1,2012-10-02T17:00:00Z,26.1914,-97.0507,2.0,352.5571839,8.49154874,-99999.0,'11133222,11111222,99999999' 
TABS,ioos:station:wmo:42044:1,2012-10-02T17:30:00Z,26.1914,-97.0507,2.0,354.1442106,9.409101976,-99999.0,'11133222,11111222,99999999' 
TABS,ioos:station:wmo:42044:1,2012-10-02T18:00:00Z,26.1914,-97.0507,2.0,8.521522409,6.006305021,-99999.0,'11133222,11111222,99999999' 
TABS,ioos:station:wmo:42044:1,2012-10-02T18:30:00Z,26.1914,-97.0507,2.0,337.3258116,6.459233701,-99999.0,'11133222,11111222,99999999' 
TABS,ioos:station:wmo:42044:1,2012-10-02T19:00:00Z,26.1914,-97.0507,2.0,0.314586703,7.290109739,-99999.0,'11133222,11111222,99999999' 
TABS,ioos:station:wmo:42044:1,2012-10-02T19:30:00Z,26.1914,-97.0507,2.0,346.6342289,6.012869531,-99999.0,'11133222,11111222,99999999' 
TABS,ioos:station:wmo:42044:1,2012-10-02T20:00:00Z,26.1914,-97.0507,2.0,353.5691747,6.96382079,-99999.0,'11133222,11111222,99999999' 
TABS,ioos:station:wmo:42044:1,2012-10-02T20:30:00Z,26.1914,-97.0507,2.0,332.6570601,5.268662069,-99999.0,'11133222,11111222,99999999' 
TABS,ioos:station:wmo:42044:1,2012-10-02T21:00:00Z,26.1914,-97.0507,2.0,321.4793188,4.511873225,-99999.0,'11133222,11111222,99999999' 
TABS,ioos:station:wmo:42044:1,2012-10-02T21:30:00Z,26.1914,-97.0507,2.0,328.5960816,5.354344031,-99999.0,'11133222,11111222,99999999' 
TABS,ioos:station:wmo:42044:1,2012-10-02T22:00:00Z,26.1914,-97.0507,2.0,294.5066491,6.846787568,-99999.0,'11133222,11111222,99999999' 
TABS,ioos:station:wmo:42044:1,2012-10-02T22:30:00Z,26.1914,-97.0507,2.0,305.2671931,6.148406298,-99999.0,'11133222,11111222,99999999' 
TABS,ioos:station:wmo:42044:1,2012-10-02T23:00:00Z,26.1914,-97.0507,2.0,314.4074374,7.516947519,-99999.0,'11133222,11111222,99999999' 
TABS,ioos:station:wmo:42044:1,2012-10-02T23:30:00Z,26.1914,-97.0507,2.0,330.535058,4.065907033,-99999.0,'11133222,11111222,99999999' 
TABS,ioos:station:wmo:42044:1,2012-10-03T00:00:00Z,26.1914,-97.0507,2.0,332.3859679,6.105489333,-99999.0,'11133222,11111222,99999999' 
TABS,ioos:station:wmo:42044:1,2012-10-03T00:30:00Z,26.1914,-97.0507,2.0,344.2809964,4.872217154,-99999.0,'11133222,11111222,99999999' 
TABS,ioos:station:wmo:42044:1,2012-10-03T01:00:00Z,26.1914,-97.0507,2.0,324.6552702,3.45722432,-99999.0,'11133222,11111222,99999999' 
TABS,ioos:station:wmo:42044:1,2012-10-03T01:30:00Z,26.1914,-97.0507,2.0,340.1737813,3.12525199,-99999.0,'11133222,11111222,99999999' 
TABS,ioos:station:wmo:42044:1,2012-10-03T02:00:00Z,26.1914,-97.0507,2.0,336.0164741,5.4615474,-99999.0,'11133222,11111222,99999999' 
TABS,ioos:station:wmo:42044:1,2012-10-03T02:30:00Z,26.1914,-97.0507,2.0,324.8575249,4.04783893,-99999.0,'11133222,11111222,99999999' 
TABS,ioos:station:wmo:42044:1,2012-10-03T03:00:00Z,26.1914,-97.0507,2.0,357.9906613,4.562806154,-99999.0,'11133222,11111222,99999999' 
TABS,ioos:station:wmo:42044:1,2012-10-03T03:30:00Z,26.1914,-97.0507,2.0,347.7244534,4.421085839,-99999.0,'11133222,11111222,99999999' 
TABS,ioos:station:wmo:42044:1,2012-10-03T04:00:00Z,26.1914,-97.0507,2.0,2.585998754,1.55157984,-99999.0,'11133222,11111222,99999999' 
TABS,ioos:station:wmo:42044:1,2012-10-03T04:30:00Z,26.1914,-97.0507,2.0,25.30442598,3.252030135,-99999.0,'11133222,11111222,99999999' 
TABS,ioos:station:wmo:42044:1,2012-10-03T05:00:00Z,26.1914,-97.0507,2.0,357.4364462,1.341342611,-99999.0,'11133222,11111222,99999999' 
TABS,ioos:station:wmo:42044:1,2012-10-03T05:30:00Z,26.1914,-97.0507,2.0,31.1355407,2.86232423,-99999.0,'11133222,11111222,99999999' 
TABS,ioos:station:wmo:42044:1,2012-10-03T06:00:00Z,26.1914,-97.0507,2.0,331.7767907,2.008830506,-99999.0,'11133222,11111222,99999999' 
TABS,ioos:station:wmo:42044:1,2012-10-03T06:30:00Z,26.1914,-97.0507,2.0,43.6981556,2.489658611,-99999.0,'11133222,11111222,99999999' 
TABS,ioos:station:wmo:42044:1,2012-10-03T07:00:00Z,26.1914,-97.0507,2.0,208.0444109,1.212353084,-99999.0,'11133222,11111222,99999999' 
TABS,ioos:station:wmo:42044:1,2012-10-03T07:30:00Z,26.1914,-97.0507,2.0,130.0444574,2.455768719,-99999.0,'11133222,11111222,99999999' 
TABS,ioos:station:wmo:42044:1,2012-10-03T08:00:00Z,26.1914,-97.0507,2.0,174.3936367,1.637833935,-99999.0,'11133222,11111222,99999999' 
TABS,ioos:station:wmo:42044:1,2012-10-03T08:30:00Z,26.1914,-97.0507,2.0,200.0949737,3.056043193,-99999.0,'11133222,11111222,99999999' 
TABS,ioos:station:wmo:42044:1,2012-10-03T09:00:00Z,26.1914,-97.0507,2.0,177.3264482,2.572800031,-99999.0,'11133222,11111222,99999999' 
TABS,ioos:station:wmo:42044:1,2012-10-03T09:30:00Z,26.1914,-97.0507,2.0,166.0473444,1.658945448,-99999.0,'11133222,11111222,99999999' 
TABS,ioos:station:wmo:42044:1,2012-10-03T10:00:00Z,26.1914,-97.0507,2.0,157.3799775,4.68,-99999.0,'11133222,11111222,99999999' 
TABS,ioos:station:wmo:42044:1,2012-10-03T10:30:00Z,26.1914,-97.0507,2.0,140.5851797,4.504442252,-99999.0,'11133222,11111222,99999999' 
TABS,ioos:station:wmo:42044:1,2012-10-03T11:00:00Z,26.1914,-97.0507,2.0,163.1998744,6.539090151,-99999.0,'11133222,11111222,99999999' 
TABS,ioos:station:wmo:42044:1,2012-10-03T11:30:00Z,26.1914,-97.0507,2.0,175.8667286,4.301185883,-99999.0,'11133222,11111222,99999999' 
TABS,ioos:station:wmo:42044:1,2012-10-03T12:00:00Z,26.1914,-97.0507,2.0,168.8792551,5.340271529,-99999.0,'11133222,11111222,99999999' 
TABS,ioos:station:wmo:42044:1,2012-10-03T12:30:00Z,26.1914,-97.0507,2.0,159.9504857,8.867384056,-99999.0,'11133222,11111222,99999999' 
TABS,ioos:station:wmo:42044:1,2012-10-03T13:00:00Z,26.1914,-97.0507,2.0,130.2978503,4.916797738,-99999.0,'11133222,11111222,99999999' 
TABS,ioos:station:wmo:42044:1,2012-10-03T13:30:00Z,26.1914,-97.0507,2.0,192.7695577,5.157567256,-99999.0,'11133222,11111222,99999999' 
TABS,ioos:station:wmo:42044:1,2012-10-03T14:00:00Z,26.1914,-97.0507,2.0,196.3037474,6.803601987,-99999.0,'11133222,11111222,99999999' 
TABS,ioos:station:wmo:42044:1,2012-10-03T14:30:00Z,26.1914,-97.0507,2.0,196.8865412,6.437584951,-99999.0,'11133222,11111222,99999999' 
TABS,ioos:station:wmo:42044:1,2012-10-03T15:00:00Z,26.1914,-97.0507,2.0,194.5920512,6.747658853,-99999.0,'11133222,11111222,99999999' 
TABS,ioos:station:wmo:42044:1,2012-10-03T15:30:00Z,26.1914,-97.0507,2.0,189.427025,5.372559911,-99999.0,'11133222,11111222,99999999' 
TABS,ioos:station:wmo:42044:1,2012-10-03T16:00:00Z,26.1914,-97.0507,2.0,201.2502454,3.669509504,-99999.0,'11133222,11111222,99999999' 
TABS,ioos:station:wmo:42044:1,2012-10-03T16:30:00Z,26.1914,-97.0507,2.0,171.7641895,4.6075156,-99999.0,'11133222,11111222,99999999' 
TABS,ioos:station:wmo:42044:1,2012-10-03T17:00:00Z,26.1914,-97.0507,2.0,236.5964247,2.216055053,-99999.0,'11133222,11111222,99999999' 
TABS,ioos:station:wmo:42044:1,2012-10-03T17:30:00Z,26.1914,-97.0507,2.0,247.0226883,1.357718675,-99999.0,'11133222,11111222,99999999' 
TABS,ioos:station:wmo:42044:1,2012-10-03T18:00:00Z,26.1914,-97.0507,2.0,266.0086753,1.724180965,-99999.0,'11133222,11111222,99999999' 
TABS,ioos:station:wmo:42044:1,2012-10-03T18:30:00Z,26.1914,-97.0507,2.0,319.7321212,3.171576895,-99999.0,'11133222,11111222,99999999' 
TABS,ioos:station:wmo:42044:1,2012-10-03T19:00:00Z,26.1914,-97.0507,2.0,310.1234208,4.15870172,-99999.0,'11133222,11111222,99999999' 
TABS,ioos:station:wmo:42044:1,2012-10-03T19:30:00Z,26.1914,-97.0507,2.0,339.6198047,3.819070568,-99999.0,'11133222,11111222,99999999' 
TABS,ioos:station:wmo:42044:1,2012-10-03T20:00:00Z,26.1914,-97.0507,2.0,344.5734372,4.097633463,-99999.0,'11133222,11111222,99999999' 
TABS,ioos:station:wmo:42044:1,2012-10-03T20:30:00Z,26.1914,-97.0507,2.0,344.6083295,4.408106169,-99999.0,'11133222,11111222,99999999' 
TABS,ioos:station:wmo:42044:1,2012-10-03T21:00:00Z,26.1914,-97.0507,2.0,344.085535,7.694939896,-99999.0,'11133222,11111222,99999999' 
TABS,ioos:station:wmo:42044:1,2012-10-03T21:30:00Z,26.1914,-97.0507,2.0,358.3790683,5.302122217,-99999.0,'11133222,11111222,99999999' 
TABS,ioos:station:wmo:42044:1,2012-10-03T22:00:00Z,26.1914,-97.0507,2.0,350.2607873,6.79797764,-99999.0,'11133222,11111222,99999999' 
TABS,ioos:station:wmo:42044:1,2012-10-03T22:30:00Z,26.1914,-97.0507,2.0,357.469143,10.18994112,-99999.0,'11111222,11111222,99999999' 
TABS,ioos:station:wmo:42044:1,2012-10-03T23:00:00Z,26.1914,-97.0507,2.0,3.959867029,6.80624713,-99999.0,'11133222,11111222,99999999' 
TABS,ioos:station:wmo:42044:1,2012-10-03T23:30:00Z,26.1914,-97.0507,2.0,1.078420283,7.971411418,-99999.0,'11133222,11111222,99999999' 
TABS,ioos:station:wmo:42044:1,2012-10-04T00:00:00Z,26.1914,-97.0507,2.0,357.1465332,9.842205037,-99999.0,'11133222,11111222,99999999' 
TABS,ioos:station:wmo:42044:1,2012-10-04T00:30:00Z,26.1914,-97.0507,2.0,13.88996848,8.539707255,-99999.0,'11133222,11111222,99999999' 
TABS,ioos:station:wmo:42044:1,2012-10-04T01:00:00Z,26.1914,-97.0507,2.0,345.2995841,8.157021515,-99999.0,'11133222,11111222,99999999' 
TABS,ioos:station:wmo:42044:1,2012-10-04T01:30:00Z,26.1914,-97.0507,2.0,352.3788034,11.30991158,-99999.0,'11111222,11111222,99999999' 
TABS,ioos:station:wmo:42044:1,2012-10-04T02:00:00Z,26.1914,-97.0507,2.0,356.9664595,14.36012535,-99999.0,'11111222,11111222,99999999' 
TABS,ioos:station:wmo:42044:1,2012-10-04T02:30:00Z,26.1914,-97.0507,2.0,343.4092245,12.67781133,-99999.0,'11111222,11111222,99999999' 
TABS,ioos:station:wmo:42044:1,2012-10-04T03:00:00Z,26.1914,-97.0507,2.0,7.949279125,9.400324462,-99999.0,'11133222,11111222,99999999' 
TABS,ioos:station:wmo:42044:1,2012-10-04T03:30:00Z,26.1914,-97.0507,2.0,349.6333924,13.22590262,-99999.0,'11111222,11111222,99999999' 
TABS,ioos:station:wmo:42044:1,2012-10-04T04:00:00Z,26.1914,-97.0507,2.0,8.768243116,11.93953098,-99999.0,'11111222,11111222,99999999' 
TABS,ioos:station:wmo:42044:1,2012-10-04T04:30:00Z,26.1914,-97.0507,2.0,4.521833387,11.79671564,-99999.0,'11111222,11111222,99999999' 
TABS,ioos:station:wmo:42044:1,2012-10-04T05:00:00Z,26.1914,-97.0507,2.0,357.2995874,15.91767885,-99999.0,'11111222,11111222,99999999' 
TABS,ioos:station:wmo:42044:1,2012-10-04T05:30:00Z,26.1914,-97.0507,2.0,359.1029622,17.24211414,-99999.0,'11111222,11144222,99999999' 
TABS,ioos:station:wmo:42044:1,2012-10-04T06:00:00Z,26.1914,-97.0507,2.0,1.222233466,15.47351932,-99999.0,'11111222,11111222,99999999' 
TABS,ioos:station:wmo:42044:1,2012-10-04T06:30:00Z,26.1914,-97.0507,2.0,9.668153884,17.86370902,-99999.0,'11111222,11111222,99999999' 
TABS,ioos:station:wmo:42044:1,2012-10-04T07:00:00Z,26.1914,-97.0507,2.0,12.08143038,17.77365466,-99999.0,'11111222,11111222,99999999' 
TABS,ioos:station:wmo:42044:1,2012-10-04T07:30:00Z,26.1914,-97.0507,2.0,6.376237484,17.64916995,-99999.0,'11111222,11111222,99999999' 
TABS,ioos:station:wmo:42044:1,2012-10-04T08:00:00Z,26.1914,-97.0507,2.0,1.058321073,22.7438783,-99999.0,'11111222,11111222,99999999' 
TABS,ioos:station:wmo:42044:1,2012-10-04T08:30:00Z,26.1914,-97.0507,2.0,4.950703372,19.35219109,-99999.0,'11111222,11111222,99999999' 
TABS,ioos:station:wmo:42044:1,2012-10-04T09:00:00Z,26.1914,-97.0507,2.0,353.157453,19.89169173,-99999.0,'11111222,11111222,99999999' 
TABS,ioos:station:wmo:42044:1,2012-10-04T09:30:00Z,26.1914,-97.0507,2.0,5.635217134,20.368429,-99999.0,'11111222,11111222,99999999' 
TABS,ioos:station:wmo:42044:1,2012-10-04T10:00:00Z,26.1914,-97.0507,2.0,354.3773683,19.49379645,-99999.0,'11111222,11111222,99999999' 
TABS,ioos:station:wmo:42044:1,2012-10-04T10:30:00Z,26.1914,-97.0507,2.0,8.39443301,21.16675932,-99999.0,'11111222,11111222,99999999' 
TABS,ioos:station:wmo:42044:1,2012-10-04T11:00:00Z,26.1914,-97.0507,2.0,8.739348553,24.87883639,-99999.0,'11111222,11111222,99999999' 
TABS,ioos:station:wmo:42044:1,2012-10-04T11:30:00Z,26.1914,-97.0507,2.0,11.09920118,22.90848096,-99999.0,'11111222,11111222,99999999' 
TABS,ioos:station:wmo:42044:1,2012-10-04T12:00:00Z,26.1914,-97.0507,2.0,355.8053193,26.52105013,-99999.0,'11111222,11111222,99999999' 
TABS,ioos:station:wmo:42044:1,2012-10-04T12:30:00Z,26.1914,-97.0507,2.0,1.602295788,23.24908815,-99999.0,'11111222,11111222,99999999' 
TABS,ioos:station:wmo:42044:1,2012-10-04T13:00:00Z,26.1914,-97.0507,2.0,14.7848753,23.39455706,-99999.0,'11111222,11111222,99999999' 
TABS,ioos:station:wmo:42044:1,2012-10-04T13:30:00Z,26.1914,-97.0507,2.0,354.5228545,22.00045454,-99999.0,'11111222,11111222,99999999' 
TABS,ioos:station:wmo:42044:1,2012-10-04T14:00:00Z,26.1914,-97.0507,2.0,341.942741,24.00220823,-99999.0,'11111222,11111222,99999999' 
TABS,ioos:station:wmo:42044:1,2012-10-04T14:30:00Z,26.1914,-97.0507,2.0,351.3790336,24.74964646,-99999.0,'11111222,11111222,99999999' 
TABS,ioos:station:wmo:42044:1,2012-10-04T15:00:00Z,26.1914,-97.0507,2.0,347.7141048,22.79200298,-99999.0,'11111222,11111222,99999999' 
TABS,ioos:station:wmo:42044:1,2012-10-04T15:30:00Z,26.1914,-97.0507,2.0,346.724618,24.29936007,-99999.0,'11111222,11111222,99999999' 
TABS,ioos:station:wmo:42044:1,2012-10-04T16:00:00Z,26.1914,-97.0507,2.0,345.5662048,22.70673248,-99999.0,'11111222,11111222,99999999' 